Time,TemperatureF,DewpointF,PressureIn,WindDirection,WindDirectionDegrees,WindSpeedMPH,WindSpeedGustMPH,Humidity,HourlyPrecipIn,Conditions,Clouds,dailyrainin,SoftwareType,DateUTC
2013-11-15 00:04:00,41.5,21.2,30.00,SW,225,2.2,-999.0,44,-99.99,,,0.00,Acu-Link.com,2013-11-15 05:04:00,
2013-11-15 00:19:00,41.4,21.7,30.00,SSW,202,1.7,-999.0,45,-99.99,,,0.00,Acu-Link.com,2013-11-15 05:19:00,
2013-11-15 00:34:00,41.4,21.7,30.00,SSW,202,1.7,-999.0,45,-99.99,,,0.00,Acu-Link.com,2013-11-15 05:34:00,
2013-11-15 00:50:00,40.8,21.6,30.00,SSW,202,4.2,-999.0,46,-99.99,,,0.00,Acu-Link.com,2013-11-15 05:50:00,
2013-11-15 01:05:00,40.8,21.6,29.99,SW,225,2.2,-999.0,46,-99.99,,,0.00,Acu-Link.com,2013-11-15 06:05:00,
2013-11-15 01:20:00,40.5,21.9,29.99,WNW,292,1.1,-999.0,47,-99.99,,,0.00,Acu-Link.com,2013-11-15 06:20:00,
2013-11-15 01:35:00,40.5,21.9,29.99,South,180,4.2,-999.0,47,-99.99,,,0.00,Acu-Link.com,2013-11-15 06:35:00,
2013-11-15 01:50:00,40.5,21.9,29.99,WNW,292,2.7,-999.0,47,-99.99,,,0.00,Acu-Link.com,2013-11-15 06:50:00,
2013-11-15 02:06:00,40.3,21.7,30.01,WSW,247,3.2,-999.0,47,-99.99,,,0.00,Acu-Link.com,2013-11-15 07:06:00,
2013-11-15 02:21:00,40.1,21.5,30.01,SSW,202,2.2,-999.0,47,-99.99,,,0.00,Acu-Link.com,2013-11-15 07:21:00,
2013-11-15 02:36:00,40.1,21.5,30.01,SSW,202,2.7,-999.0,47,-99.99,,,0.00,Acu-Link.com,2013-11-15 07:36:00,
2013-11-15 02:52:00,40.3,21.7,30.01,SSW,202,2.2,-999.0,47,-99.99,,,0.00,Acu-Link.com,2013-11-15 07:52:00,
2013-11-15 03:07:00,40.3,21.2,30.02,SSW,202,0.0,-999.0,46,-99.99,,,0.00,Acu-Link.com,2013-11-15 08:07:00,
2013-11-15 03:22:00,39.9,21.3,30.01,SSW,202,2.7,-999.0,47,-99.99,,,0.00,Acu-Link.com,2013-11-15 08:22:00,
2013-11-15 03:37:00,39.4,21.4,30.01,SSW,202,0.0,-999.0,48,-99.99,,,0.00,Acu-Link.com,2013-11-15 08:37:00,
2013-11-15 03:52:00,39.0,21.5,30.00,SSW,202,0.0,-999.0,49,-99.99,,,0.00,Acu-Link.com,2013-11-15 08:52:00,
2013-11-15 04:08:00,38.8,21.3,30.01,SSW,202,0.0,-999.0,49,-99.99,,,0.00,Acu-Link.com,2013-11-15 09:08:00,
2013-11-15 04:23:00,38.7,21.2,30.01,SSW,202,0.0,-999.0,49,-99.99,,,0.00,Acu-Link.com,2013-11-15 09:23:00,
2013-11-15 04:38:00,38.7,21.2,30.02,SSW,202,1.7,-999.0,49,-99.99,,,0.00,Acu-Link.com,2013-11-15 09:38:00,
2013-11-15 04:53:00,38.5,21.5,30.01,SW,225,1.1,-999.0,50,-99.99,,,0.00,Acu-Link.com,2013-11-15 09:53:00,
2013-11-15 05:08:00,37.9,21.4,30.03,WNW,292,0.0,-999.0,51,-99.99,,,0.00,Acu-Link.com,2013-11-15 10:08:00,
2013-11-15 05:24:00,37.6,21.6,30.02,West,270,0.0,-999.0,52,-99.99,,,0.00,Acu-Link.com,2013-11-15 10:24:00,
2013-11-15 05:39:00,37.2,21.7,30.01,SW,225,1.1,-999.0,53,-99.99,,,0.00,Acu-Link.com,2013-11-15 10:39:00,
2013-11-15 05:54:00,37.0,21.5,30.02,SSW,202,1.1,-999.0,53,-99.99,,,0.00,Acu-Link.com,2013-11-15 10:54:00,
2013-11-15 06:09:00,37.0,21.5,30.01,West,270,1.7,-999.0,53,-99.99,,,0.00,Acu-Link.com,2013-11-15 11:09:00,
2013-11-15 06:25:00,37.0,21.5,30.02,West,270,1.7,-999.0,53,-99.99,,,0.00,Acu-Link.com,2013-11-15 11:25:00,
2013-11-15 06:40:00,36.9,21.8,30.02,SSW,202,3.2,-999.0,54,-99.99,,,0.00,Acu-Link.com,2013-11-15 11:40:00,
2013-11-15 06:55:00,36.7,21.6,30.03,SW,225,3.2,-999.0,54,-99.99,,,0.00,Acu-Link.com,2013-11-15 11:55:00,
2013-11-15 07:10:00,36.7,21.6,30.02,WSW,247,3.7,-999.0,54,-99.99,,,0.00,Acu-Link.com,2013-11-15 12:10:00,
2013-11-15 07:25:00,36.7,22.1,30.02,WSW,247,3.7,-999.0,55,-99.99,,,0.00,Acu-Link.com,2013-11-15 12:25:00,
2013-11-15 07:41:00,36.7,21.6,30.02,West,270,0.0,-999.0,54,-99.99,,,0.00,Acu-Link.com,2013-11-15 12:41:00,
2013-11-15 07:56:00,37.0,21.9,30.04,West,270,2.7,-999.0,54,-99.99,,,0.00,Acu-Link.com,2013-11-15 12:56:00,
2013-11-15 08:11:00,38.1,22.5,30.04,WSW,247,0.0,-999.0,53,-99.99,,,0.00,Acu-Link.com,2013-11-15 13:11:00,
2013-11-15 08:26:00,39.0,22.9,30.03,NE,45,2.7,-999.0,52,-99.99,,,0.00,Acu-Link.com,2013-11-15 13:26:00,
2013-11-15 08:41:00,39.7,23.1,30.04,SW,225,3.7,-999.0,51,-99.99,,,0.00,Acu-Link.com,2013-11-15 13:41:00,
2013-11-15 08:57:00,40.8,23.1,30.02,West,270,4.2,-999.0,49,-99.99,,,0.00,Acu-Link.com,2013-11-15 13:57:00,
2013-11-15 09:12:00,41.0,23.3,30.03,SSW,202,5.8,-999.0,49,-99.99,,,0.00,Acu-Link.com,2013-11-15 14:12:00,
2013-11-15 09:27:00,41.9,23.7,30.02,WSW,247,4.2,-999.0,48,-99.99,,,0.00,Acu-Link.com,2013-11-15 14:27:00,
2013-11-15 09:42:00,42.6,23.3,30.03,SSW,202,3.7,-999.0,46,-99.99,,,0.00,Acu-Link.com,2013-11-15 14:42:00,
2013-11-15 09:57:00,43.2,23.8,30.03,SW,225,5.3,-999.0,46,-99.99,,,0.00,Acu-Link.com,2013-11-15 14:57:00,
2013-11-15 10:13:00,44.1,24.1,30.03,West,270,4.2,-999.0,45,-99.99,,,0.00,Acu-Link.com,2013-11-15 15:13:00,
2013-11-15 10:28:00,44.2,23.7,30.05,West,270,6.8,-999.0,44,-99.99,,,0.00,Acu-Link.com,2013-11-15 15:28:00,
2013-11-15 10:43:00,45.7,25.1,30.04,East,90,2.7,-999.0,44,-99.99,,,0.00,Acu-Link.com,2013-11-15 15:43:00,
2013-11-15 10:58:00,46.6,24.8,30.03,West,270,4.2,-999.0,42,-99.99,,,0.00,Acu-Link.com,2013-11-15 15:58:00,
2013-11-15 11:14:00,47.7,25.7,30.03,West,270,3.7,-999.0,42,-99.99,,,0.00,Acu-Link.com,2013-11-15 16:14:00,
2013-11-15 11:29:00,47.8,25.3,30.03,SW,225,3.7,-999.0,41,-99.99,,,0.00,Acu-Link.com,2013-11-15 16:29:00,
2013-11-15 11:44:00,48.7,26.1,30.02,ENE,67,2.2,-999.0,41,-99.99,,,0.00,Acu-Link.com,2013-11-15 16:44:00,
2013-11-15 11:59:00,50.0,26.6,30.01,SW,225,6.8,-999.0,40,-99.99,,,0.00,Acu-Link.com,2013-11-15 16:59:00,
2013-11-15 12:14:00,49.8,25.9,29.99,NW,315,3.2,-999.0,39,-99.99,,,0.00,Acu-Link.com,2013-11-15 17:14:00,
2013-11-15 12:30:00,49.8,25.9,29.99,West,270,3.2,-999.0,39,-99.99,,,0.00,Acu-Link.com,2013-11-15 17:30:00,
2013-11-15 12:45:00,49.5,26.2,29.98,West,270,2.7,-999.0,40,-99.99,,,0.00,Acu-Link.com,2013-11-15 17:45:00,
2013-11-15 13:00:00,48.9,25.7,29.99,WSW,247,2.7,-999.0,40,-99.99,,,0.00,Acu-Link.com,2013-11-15 18:00:00,
2013-11-15 13:15:00,50.4,26.4,29.98,West,270,2.7,-999.0,39,-99.99,,,0.00,Acu-Link.com,2013-11-15 18:15:00,
2013-11-15 13:30:00,50.5,26.5,29.97,South,180,1.1,-999.0,39,-99.99,,,0.00,Acu-Link.com,2013-11-15 18:30:00,
2013-11-15 13:46:00,49.8,25.2,29.98,SSW,202,3.2,-999.0,38,-99.99,,,0.00,Acu-Link.com,2013-11-15 18:46:00,
2013-11-15 14:01:00,49.6,26.3,29.97,West,270,3.2,-999.0,40,-99.99,,,0.00,Acu-Link.com,2013-11-15 19:01:00,
2013-11-15 14:16:00,49.1,26.4,29.96,SW,225,3.7,-999.0,41,-99.99,,,0.00,Acu-Link.com,2013-11-15 19:16:00,
2013-11-15 14:31:00,49.3,26.6,29.96,West,270,4.2,-999.0,41,-99.99,,,0.00,Acu-Link.com,2013-11-15 19:31:00,
2013-11-15 14:46:00,49.5,26.2,29.96,WNW,292,2.2,-999.0,40,-99.99,,,0.00,Acu-Link.com,2013-11-15 19:46:00,
2013-11-15 15:02:00,49.5,26.2,29.96,West,270,2.7,-999.0,40,-99.99,,,0.00,Acu-Link.com,2013-11-15 20:02:00,
2013-11-15 15:17:00,49.3,26.6,29.96,West,270,1.1,-999.0,41,-99.99,,,0.00,Acu-Link.com,2013-11-15 20:17:00,
2013-11-15 15:32:00,49.3,26.6,29.96,West,270,2.2,-999.0,41,-99.99,,,0.00,Acu-Link.com,2013-11-15 20:32:00,
2013-11-15 15:47:00,49.3,26.6,29.96,South,180,4.7,-999.0,41,-99.99,,,0.00,Acu-Link.com,2013-11-15 20:47:00,
2013-11-15 16:02:00,49.3,27.2,29.96,NW,315,1.7,-999.0,42,-99.99,,,0.00,Acu-Link.com,2013-11-15 21:02:00,
2013-11-15 16:18:00,49.1,27.6,29.98,SW,225,1.1,-999.0,43,-99.99,,,0.00,Acu-Link.com,2013-11-15 21:18:00,
2013-11-15 16:33:00,48.7,28.3,29.98,West,270,0.0,-999.0,45,-99.99,,,0.00,Acu-Link.com,2013-11-15 21:33:00,
2013-11-15 16:48:00,48.4,29.1,29.97,SSW,202,2.2,-999.0,47,-99.99,,,0.00,Acu-Link.com,2013-11-15 21:48:00,
2013-11-15 17:03:00,48.0,29.3,29.98,SSW,202,5.8,-999.0,48,-99.99,,,0.00,Acu-Link.com,2013-11-15 22:03:00,
2013-11-15 17:19:00,47.7,29.5,29.99,WSW,247,3.2,-999.0,49,-99.99,,,0.00,Acu-Link.com,2013-11-15 22:19:00,
2013-11-15 17:34:00,47.5,29.8,29.98,WSW,247,1.1,-999.0,50,-99.99,,,0.00,Acu-Link.com,2013-11-15 22:34:00,
2013-11-15 17:49:00,46.8,29.6,29.98,West,270,1.1,-999.0,51,-99.99,,,0.00,Acu-Link.com,2013-11-15 22:49:00,
2013-11-15 18:04:00,46.8,29.6,29.97,West,270,2.7,-999.0,51,-99.99,,,0.00,Acu-Link.com,2013-11-15 23:04:00,
2013-11-15 18:19:00,46.4,28.8,30.00,South,180,1.7,-999.0,50,-99.99,,,0.00,Acu-Link.com,2013-11-15 23:19:00,
2013-11-15 18:35:00,46.4,28.8,29.99,SW,225,2.2,-999.0,50,-99.99,,,0.00,Acu-Link.com,2013-11-15 23:35:00,
2013-11-15 18:50:00,46.0,28.4,29.99,South,180,3.7,-999.0,50,-99.99,,,0.00,Acu-Link.com,2013-11-15 23:50:00,
2013-11-15 19:05:00,45.7,28.6,29.99,West,270,3.7,-999.0,51,-99.99,,,0.00,Acu-Link.com,2013-11-16 00:05:00,
2013-11-15 19:20:00,45.7,28.6,29.98,SW,225,3.2,-999.0,51,-99.99,,,0.00,Acu-Link.com,2013-11-16 00:20:00,
2013-11-15 19:35:00,45.7,29.1,29.98,West,270,0.0,-999.0,52,-99.99,,,0.00,Acu-Link.com,2013-11-16 00:35:00,
2013-11-15 19:51:00,45.9,29.3,29.99,WSW,247,2.7,-999.0,52,-99.99,,,0.00,Acu-Link.com,2013-11-16 00:51:00,
2013-11-15 20:06:00,45.9,29.7,29.98,WSW,247,2.2,-999.0,53,-99.99,,,0.00,Acu-Link.com,2013-11-16 01:06:00,
2013-11-15 20:21:00,46.0,29.8,29.98,WNW,292,4.2,-999.0,53,-99.99,,,0.00,Acu-Link.com,2013-11-16 01:21:00,
2013-11-15 20:36:00,45.9,29.7,29.99,SSE,157,1.7,-999.0,53,-99.99,,,0.00,Acu-Link.com,2013-11-16 01:36:00,
2013-11-15 20:51:00,45.7,30.0,29.98,SSW,202,3.2,-999.0,54,-99.99,,,0.00,Acu-Link.com,2013-11-16 01:51:00,
2013-11-15 21:07:00,45.3,29.6,29.99,West,270,2.7,-999.0,54,-99.99,,,0.00,Acu-Link.com,2013-11-16 02:07:00,
2013-11-15 21:22:00,45.3,29.6,29.99,West,270,2.7,-999.0,54,-99.99,,,0.00,Acu-Link.com,2013-11-16 02:22:00,
2013-11-15 21:37:00,45.1,29.9,29.99,West,270,1.1,-999.0,55,-99.99,,,0.00,Acu-Link.com,2013-11-16 02:37:00,
2013-11-15 21:52:00,45.0,29.8,30.01,NW,315,1.1,-999.0,55,-99.99,,,0.00,Acu-Link.com,2013-11-16 02:52:00,
2013-11-15 22:08:00,44.6,29.4,30.01,SW,225,2.7,-999.0,55,-99.99,,,0.00,Acu-Link.com,2013-11-16 03:08:00,
2013-11-15 22:23:00,44.4,29.7,30.01,SW,225,2.7,-999.0,56,-99.99,,,0.00,Acu-Link.com,2013-11-16 03:23:00,
2013-11-15 22:38:00,44.4,29.7,30.01,SW,225,2.7,-999.0,56,-99.99,,,0.00,Acu-Link.com,2013-11-16 03:38:00,
2013-11-15 22:53:00,44.1,29.9,30.02,West,270,1.7,-999.0,57,-99.99,,,0.00,Acu-Link.com,2013-11-16 03:53:00,
2013-11-15 23:08:00,43.5,29.3,30.02,South,180,0.0,-999.0,57,-99.99,,,0.00,Acu-Link.com,2013-11-16 04:08:00,
2013-11-15 23:24:00,43.3,29.5,30.01,SW,225,3.2,-999.0,58,-99.99,,,0.00,Acu-Link.com,2013-11-16 04:24:00,
2013-11-15 23:39:00,43.5,29.7,30.02,WSW,247,0.0,-999.0,58,-99.99,,,0.00,Acu-Link.com,2013-11-16 04:39:00,
2013-11-15 23:54:00,43.2,29.9,30.03,WSW,247,0.0,-999.0,59,-99.99,,,0.00,Acu-Link.com,2013-11-16 04:54:00,